When you browse on this site, cookies collect data to enhance your experience and personalize the content and advertising you see.
Visit our Privacy Policy to learn more. By continuing to use the site, you agree to this use of cookies and data.
  • en France
  • Liste des pays
  • À 7 jours
  • Température de l'eau
  • Carte satellitaire
  • Carte météo
  • Widgets météo
  • user-avatar
    Se connecter

    Météo par heure à Dogondoutchi

    Ce jour, 11 Décembre, Mardi

    Heure Température Précipitation Vent Pression Humidité
    00:00 +21°C° 0 mm 4 m/s 742 mmHg 15%
    01:00 +20°C° 0 mm 4 m/s 741 mmHg 16%
    02:00 +20°C° 0 mm 4 m/s 741 mmHg 17%
    03:00 +19°C° 0 mm 4 m/s 741 mmHg 17%
    04:00 +19°C° 0 mm 4 m/s 741 mmHg 18%
    05:00 +19°C° 0 mm 4 m/s 741 mmHg 19%
    06:00 +18°C° 0 mm 4 m/s 742 mmHg 21%
    07:00 +21°C° 0 mm 5 m/s 742 mmHg 19%
    08:00 +24°C° 0 mm 6 m/s 743 mmHg 17%
    09:00 +27°C° 0 mm 6 m/s 743 mmHg 16%
    10:00 +29°C° 0 mm 6 m/s 743 mmHg 14%
    11:00 +32°C° 0 mm 6 m/s 742 mmHg 13%
    12:00 +34°C° 0 mm 5 m/s 742 mmHg 12%
    13:00 +34°C° 0 mm 5 m/s 741 mmHg 11%
    14:00 +34°C° 0 mm 4 m/s 740 mmHg 11%
    15:00 +35°C° 0 mm 3 m/s 740 mmHg 10%
    16:00 +33°C° 0 mm 3 m/s 740 mmHg 12%
    17:00 +29°C° 0 mm 3 m/s 740 mmHg 13%
    18:00 +27°C° 0 mm 3 m/s 740 mmHg 15%
    19:00 +27°C° 0 mm 3 m/s 740 mmHg 16%
    20:00 +26°C° 0 mm 3 m/s 741 mmHg 16%
    21:00 +25°C° 0 mm 3 m/s 741 mmHg 17%
    22:00 +25°C° 0 mm 3 m/s 741 mmHg 17%
    23:00 +23°C° 0 mm 4 m/s 741 mmHg 18%

    Demain, 12 Décembre, Mercredi

    Heure Température Précipitation Vent Pression Humidité
    00:00 +23°C° 0 mm 4 m/s 741 mmHg 18%
    01:00 +22°C° 0 mm 4 m/s 741 mmHg 19%
    02:00 +22°C° 0 mm 4 m/s 741 mmHg 19%
    03:00 +21°C° 0 mm 4 m/s 740 mmHg 19%
    04:00 +21°C° 0 mm 4 m/s 741 mmHg 19%
    05:00 +21°C° 0 mm 4 m/s 741 mmHg 19%
    06:00 +20°C° 0 mm 4 m/s 741 mmHg 18%
    07:00 +23°C° 0 mm 5 m/s 742 mmHg 16%
    08:00 +26°C° 0 mm 6 m/s 743 mmHg 14%
    09:00 +29°C° 0 mm 7 m/s 743 mmHg 11%
    10:00 +30°C° 0 mm 7 m/s 743 mmHg 10%
    11:00 +33°C° 0 mm 6 m/s 742 mmHg 9%
    12:00 +35°C° 0 mm 6 m/s 742 mmHg 9%
    13:00 +36°C° 0 mm 5 m/s 741 mmHg 9%
    14:00 +36°C° 0 mm 4 m/s 740 mmHg 9%
    15:00 +36°C° 0 mm 4 m/s 740 mmHg 9%
    16:00 +34°C° 0 mm 4 m/s 740 mmHg 11%
    17:00 +31°C° 0 mm 3 m/s 740 mmHg 12%
    18:00 +28°C° 0 mm 3 m/s 740 mmHg 14%
    19:00 +28°C° 0 mm 3 m/s 741 mmHg 14%
    20:00 +27°C° 0 mm 3 m/s 741 mmHg 15%
    21:00 +26°C° 0 mm 3 m/s 742 mmHg 15%
    22:00 +26°C° 0 mm 3 m/s 742 mmHg 16%
    23:00 +25°C° 0 mm 3 m/s 742 mmHg 16%

    Après-demain, 13 Décembre, Jeudi

    Heure Température Précipitation Vent Pression Humidité
    00:00 +25°C° 0 mm 3 m/s 741 mmHg 17%
    01:00 +23°C° 0 mm 4 m/s 741 mmHg 17%
    02:00 +23°C° 0 mm 4 m/s 741 mmHg 17%
    03:00 +22°C° 0 mm 4 m/s 740 mmHg 17%
    04:00 +22°C° 0 mm 4 m/s 741 mmHg 17%
    05:00 +21°C° 0 mm 4 m/s 741 mmHg 18%
    06:00 +21°C° 0 mm 4 m/s 741 mmHg 18%
    07:00 +23°C° 0 mm 5 m/s 742 mmHg 15%
    08:00 +27°C° 0 mm 5 m/s 742 mmHg 13%
    09:00 +30°C° 0 mm 6 m/s 743 mmHg 11%
    10:00 +32°C° 0 mm 6 m/s 742 mmHg 10%
    11:00 +34°C° 0 mm 5 m/s 742 mmHg 9%
    12:00 +36°C° 0 mm 5 m/s 741 mmHg 8%
    13:00 +37°C° 0 mm 4 m/s 740 mmHg 8%
    14:00 +37°C° 0 mm 4 m/s 740 mmHg 8%
    15:00 +37°C° 0 mm 3 m/s 739 mmHg 8%
    16:00 +35°C° 0 mm 3 m/s 740 mmHg 10%
    17:00 +33°C° 0 mm 3 m/s 740 mmHg 11%
    18:00 +29°C° 0 mm 3 m/s 740 mmHg 13%
    19:00 +29°C° 0 mm 3 m/s 741 mmHg 13%
    20:00 +28°C° 0 mm 3 m/s 741 mmHg 13%
    21:00 +27°C° 0 mm 3 m/s 742 mmHg 14%
    22:00 +26°C° 0 mm 3 m/s 741 mmHg 15%
    23:00 +26°C° 0 mm 3 m/s 741 mmHg 15%

    14 Décembre, Vendredi

    Heure Température Précipitation Vent Pression Humidité
    00:00 +25°C° 0 mm 3 m/s 741 mmHg 16%
    01:00 +24°C° 0 mm 3 m/s 741 mmHg 16%
    02:00 +24°C° 0 mm 3 m/s 740 mmHg 17%
    03:00 +22°C° 0 mm 3 m/s 740 mmHg 17%
    04:00 +22°C° 0 mm 3 m/s 741 mmHg 18%
    05:00 +22°C° 0 mm 3 m/s 741 mmHg 18%
    06:00 +21°C° 0 mm 3 m/s 741 mmHg 18%
    07:00 +25°C° 0 mm 4 m/s 742 mmHg 16%
    08:00 +27°C° 0 mm 4 m/s 742 mmHg 13%
    09:00 +30°C° 0 mm 5 m/s 743 mmHg 11%
    10:00 +33°C° 0 mm 5 m/s 742 mmHg 10%
    11:00 +35°C° 0 mm 4 m/s 741 mmHg 9%
    12:00 +36°C° 0 mm 4 m/s 741 mmHg 8%
    13:00 +37°C° 0 mm 4 m/s 740 mmHg 8%
    14:00 +37°C° 0 mm 3 m/s 739 mmHg 8%
    15:00 +38°C° 0 mm 3 m/s 739 mmHg 7%
    16:00 +35°C° 0 mm 3 m/s 739 mmHg 9%
    17:00 +33°C° 0 mm 3 m/s 739 mmHg 10%
    18:00 +30°C° 0 mm 4 m/s 740 mmHg 11%
    19:00 +29°C° 0 mm 4 m/s 740 mmHg 11%
    20:00 +28°C° 0 mm 4 m/s 741 mmHg 12%
    21:00 +27°C° 0 mm 4 m/s 741 mmHg 12%
    22:00 +27°C° 0 mm 4 m/s 741 mmHg 13%
    23:00 +26°C° 0 mm 4 m/s 741 mmHg 13%

    15 Décembre, Samedi

    Heure Température Précipitation Vent Pression Humidité
    00:00 +25°C° 0 mm 4 m/s 740 mmHg 13%
    01:00 +25°C° 0 mm 4 m/s 740 mmHg 14%
    02:00 +23°C° 0 mm 4 m/s 740 mmHg 14%
    03:00 +23°C° 0 mm 4 m/s 740 mmHg 15%
    04:00 +22°C° 0 mm 4 m/s 740 mmHg 15%
    05:00 +22°C° 0 mm 4 m/s 741 mmHg 16%
    06:00 +22°C° 0 mm 4 m/s 741 mmHg 16%
    07:00 +25°C° 0 mm 5 m/s 742 mmHg 14%
    08:00 +28°C° 0 mm 5 m/s 742 mmHg 12%
    09:00 +30°C° 0 mm 6 m/s 743 mmHg 10%
    10:00 +33°C° 0 mm 6 m/s 742 mmHg 9%
    11:00 +35°C° 0 mm 5 m/s 742 mmHg 8%
    12:00 +36°C° 0 mm 5 m/s 741 mmHg 7%
    13:00 +37°C° 0 mm 4 m/s 740 mmHg 7%
    14:00 +37°C° 0 mm 4 m/s 740 mmHg 7%
    15:00 +37°C° 0 mm 4 m/s 739 mmHg 7%
    16:00 +35°C° 0 mm 4 m/s 739 mmHg 8%
    17:00 +33°C° 0 mm 4 m/s 740 mmHg 9%
    18:00 +29°C° 0 mm 4 m/s 740 mmHg 10%
    19:00 +29°C° 0 mm 4 m/s 740 mmHg 10%
    20:00 +28°C° 0 mm 4 m/s 741 mmHg 11%
    21:00 +27°C° 0 mm 4 m/s 741 mmHg 11%
    22:00 +26°C° 0 mm 5 m/s 741 mmHg 11%
    23:00 +25°C° 0 mm 5 m/s 741 mmHg 11%

    16 Décembre, Dimanche

    Heure Température Précipitation Vent Pression Humidité
    00:00 +25°C° 0 mm 5 m/s 740 mmHg 11%
    01:00 +23°C° 0 mm 5 m/s 740 mmHg 11%
    02:00 +23°C° 0 mm 5 m/s 740 mmHg 11%
    03:00 +22°C° 0 mm 5 m/s 740 mmHg 11%
    04:00 +22°C° 0 mm 5 m/s 740 mmHg 12%
    05:00 +21°C° 0 mm 5 m/s 741 mmHg 12%
    06:00 +21°C° 0 mm 5 m/s 741 mmHg 12%
    07:00 +23°C° 0 mm 5 m/s 742 mmHg 11%
    08:00 +26°C° 0 mm 6 m/s 742 mmHg 10%
    09:00 +28°C° 0 mm 7 m/s 743 mmHg 9%
    10:00 +30°C° 0 mm 6 m/s 742 mmHg 8%
    11:00 +33°C° 0 mm 6 m/s 741 mmHg 7%
    12:00 +35°C° 0 mm 5 m/s 741 mmHg 6%
    13:00 +36°C° 0 mm 5 m/s 740 mmHg 6%
    14:00 +36°C° 0 mm 4 m/s 740 mmHg 6%
    15:00 +36°C° 0 mm 4 m/s 739 mmHg 6%
    16:00 +34°C° 0 mm 4 m/s 740 mmHg 7%
    17:00 +31°C° 0 mm 3 m/s 740 mmHg 8%
    18:00 +29°C° 0 mm 3 m/s 740 mmHg 10%
    19:00 +28°C° 0 mm 3 m/s 740 mmHg 10%
    20:00 +27°C° 0 mm 4 m/s 741 mmHg 10%
    21:00 +26°C° 0 mm 4 m/s 741 mmHg 10%
    22:00 +26°C° 0 mm 4 m/s 741 mmHg 11%
    23:00 +25°C° 0 mm 4 m/s 741 mmHg 12%
    Voir plus